• In Belarus
  • List of Countries
  • For 7 days
  • Water Temperature
  • Satellite Maps
  • Weather Map
  • Weather Widgets
  • user-avatar
    Login

    Hourly Weather Quito

    Today, 25 May, Friday

    Time Temperature Precipitation Wind Pressure Humidity
    00:00 +15°C° 0 mm 1 mps 623 mmHg 57%
    01:00 +16°C° 0 mm 1 mps 623 mmHg 52%
    02:00 +16°C° 0 mm 1 mps 623 mmHg 53%
    03:00 +15°C° 0 mm 1 mps 623 mmHg 55%
    04:00 +15°C° 0 mm 1 mps 622 mmHg 56%
    05:00 +15°C° 0 mm 1 mps 623 mmHg 58%
    06:00 +15°C° 0 mm 1 mps 623 mmHg 60%
    07:00 +15°C° 0 mm 1 mps 623 mmHg 62%
    08:00 +18°C° 0 mm 1 mps 624 mmHg 56%
    09:00 +19°C° 0 mm 2 mps 624 mmHg 50%
    10:00 +22°C° 0 mm 3 mps 625 mmHg 45%
    11:00 +22°C° 0 mm 3 mps 625 mmHg 43%
    12:00 +24°C° 0 mm 3 mps 624 mmHg 41%
    13:00 +24°C° 0 mm 2 mps 624 mmHg 39%
    14:00 +23°C° 0 mm 2 mps 623 mmHg 43%
    15:00 +21°C° 0 mm 2 mps 623 mmHg 47%
    16:00 +21°C° 0 mm 2 mps 622 mmHg 51%
    17:00 +19°C° 0 mm 2 mps 622 mmHg 53%
    18:00 +18°C° 0 mm 2 mps 622 mmHg 55%
    19:00 +17°C° 0 mm 2 mps 623 mmHg 57%
    20:00 +17°C° 0 mm 2 mps 623 mmHg 60%
    21:00 +16°C° 0 mm 2 mps 623 mmHg 63%
    22:00 +16°C° 0 mm 2 mps 623 mmHg 66%
    23:00 +15°C° 0 mm 2 mps 623 mmHg 67%

    Tomorrow, 26 May, Saturday

    Time Temperature Precipitation Wind Pressure Humidity
    00:00 +15°C° 0 mm 2 mps 623 mmHg 69%
    01:00 +15°C° 0 mm 1 mps 623 mmHg 70%
    02:00 +15°C° 0 mm 1 mps 623 mmHg 70%
    03:00 +15°C° 0 mm 1 mps 622 mmHg 70%
    04:00 +15°C° 0 mm 1 mps 622 mmHg 70%
    05:00 +15°C° 0 mm 1 mps 623 mmHg 70%
    06:00 +15°C° 0 mm 1 mps 623 mmHg 70%
    07:00 +15°C° 0 mm 1 mps 623 mmHg 71%
    08:00 +16°C° 0 mm 2 mps 624 mmHg 64%
    09:00 +18°C° 0 mm 2 mps 624 mmHg 58%
    10:00 +20°C° 0 mm 3 mps 625 mmHg 52%
    11:00 +21°C° 0 mm 2 mps 625 mmHg 47%
    12:00 +23°C° 0 mm 2 mps 625 mmHg 42%
    13:00 +25°C° 0 mm 2 mps 625 mmHg 36%
    14:00 +24°C° 0 mm 1 mps 624 mmHg 39%
    15:00 +23°C° 0 mm 1 mps 624 mmHg 41%
    16:00 +23°C° 0 mm 1 mps 624 mmHg 44%
    17:00 +21°C° 0 mm 1 mps 624 mmHg 47%
    18:00 +20°C° 0 mm 1 mps 623 mmHg 49%
    19:00 +19°C° 0 mm 1 mps 623 mmHg 52%
    20:00 +18°C° 0 mm 1 mps 624 mmHg 53%
    21:00 +18°C° 0 mm 1 mps 624 mmHg 55%
    22:00 +15°C° 0 mm 0 mps 624 mmHg 56%
    23:00 +16°C° 0 mm 1 mps 624 mmHg 57%

    Day after tomorrow, 27 May, Sunday

    Time Temperature Precipitation Wind Pressure Humidity
    00:00 +16°C° 0 mm 1 mps 624 mmHg 58%
    01:00 +15°C° 0 mm 1 mps 623 mmHg 59%
    02:00 +14°C° 0 mm 1 mps 623 mmHg 62%
    03:00 +14°C° 0 mm 1 mps 623 mmHg 66%
    04:00 +13°C° 0 mm 1 mps 622 mmHg 69%
    05:00 +13°C° 0 mm 1 mps 623 mmHg 70%
    06:00 +14°C° 0 mm 1 mps 623 mmHg 72%
    07:00 +14°C° 0 mm 1 mps 624 mmHg 74%
    08:00 +16°C° 0 mm 2 mps 625 mmHg 64%
    09:00 +19°C° 0 mm 2 mps 626 mmHg 55%
    10:00 +22°C° 0 mm 3 mps 627 mmHg 45%
    11:00 +24°C° 0 mm 3 mps 626 mmHg 42%
    12:00 +24°C° 0 mm 3 mps 626 mmHg 40%
    13:00 +25°C° 0 mm 3 mps 626 mmHg 37%
    14:00 +25°C° 0 mm 2 mps 625 mmHg 38%
    15:00 +24°C° 0 mm 2 mps 625 mmHg 39%
    16:00 +24°C° 0 mm 2 mps 624 mmHg 40%
    17:00 +21°C° 0 mm 2 mps 624 mmHg 46%
    18:00 +20°C° 0 mm 1 mps 624 mmHg 51%
    19:00 +18°C° 0 mm 1 mps 624 mmHg 56%
    20:00 +16°C° 0 mm 1 mps 624 mmHg 57%
    21:00 +16°C° 0 mm 1 mps 624 mmHg 58%
    22:00 +15°C° 0 mm 1 mps 625 mmHg 59%
    23:00 +15°C° 0 mm 1 mps 624 mmHg 61%

    28 May, Monday

    Time Temperature Precipitation Wind Pressure Humidity
    00:00 +14°C° 0 mm 1 mps 624 mmHg 62%
    01:00 +14°C° 0 mm 1 mps 624 mmHg 64%
    02:00 +13°C° 0 mm 1 mps 624 mmHg 65%
    03:00 +13°C° 0 mm 1 mps 624 mmHg 66%
    04:00 +13°C° 0 mm 1 mps 623 mmHg 67%
    05:00 +13°C° 0 mm 1 mps 624 mmHg 68%
    06:00 +13°C° 0 mm 1 mps 624 mmHg 68%
    07:00 +14°C° 0 mm 1 mps 625 mmHg 69%
    08:00 +16°C° 0 mm 2 mps 626 mmHg 60%
    09:00 +19°C° 0 mm 2 mps 626 mmHg 51%
    10:00 +22°C° 0 mm 3 mps 627 mmHg 42%
    11:00 +24°C° 0 mm 3 mps 627 mmHg 38%
    12:00 +25°C° 0 mm 2 mps 626 mmHg 35%
    13:00 +26°C° 0 mm 2 mps 626 mmHg 32%
    14:00 +26°C° 0 mm 2 mps 626 mmHg 33%
    15:00 +26°C° 0 mm 1 mps 625 mmHg 34%
    16:00 +25°C° 0 mm 1 mps 625 mmHg 35%
    17:00 +23°C° 0 mm 1 mps 624 mmHg 39%
    18:00 +21°C° 0 mm 1 mps 624 mmHg 44%
    19:00 +19°C° 0 mm 1 mps 624 mmHg 48%
    20:00 +18°C° 0 mm 1 mps 624 mmHg 50%
    21:00 +16°C° 0 mm 1 mps 624 mmHg 51%
    22:00 +15°C° 0 mm 0 mps 624 mmHg 53%
    23:00 +14°C° 0 mm 0 mps 624 mmHg 55%

    29 May, Tuesday

    Time Temperature Precipitation Wind Pressure Humidity
    00:00 +15°C° 0 mm 1 mps 624 mmHg 58%
    01:00 +14°C° 0 mm 1 mps 623 mmHg 60%
    02:00 +14°C° 0 mm 1 mps 623 mmHg 62%
    03:00 +14°C° 0 mm 1 mps 623 mmHg 64%
    04:00 +14°C° 0 mm 1 mps 623 mmHg 66%
    05:00 +14°C° 0 mm 1 mps 624 mmHg 67%
    06:00 +14°C° 0 mm 1 mps 624 mmHg 68%
    07:00 +14°C° 0 mm 1 mps 625 mmHg 69%
    08:00 +18°C° 0 mm 1 mps 625 mmHg 60%
    09:00 +20°C° 0 mm 2 mps 626 mmHg 50%
    10:00 +24°C° 0 mm 3 mps 627 mmHg 41%
    11:00 +25°C° 0 mm 2 mps 627 mmHg 37%
    12:00 +27°C° 0 mm 1 mps 626 mmHg 34%
    13:00 +28°C° 0 mm 1 mps 626 mmHg 30%
    14:00 +27°C° 0 mm 1 mps 625 mmHg 31%
    15:00 +27°C° 0 mm 1 mps 625 mmHg 31%
    16:00 +26°C° 0 mm 1 mps 624 mmHg 32%
    17:00 +24°C° 0 mm 1 mps 624 mmHg 37%
    18:00 +21°C° 0 mm 1 mps 623 mmHg 43%
    19:00 +19°C° 0 mm 1 mps 623 mmHg 48%
    20:00 +18°C° 0 mm 1 mps 623 mmHg 49%
    21:00 +18°C° 0 mm 1 mps 623 mmHg 50%
    22:00 +16°C° 0 mm 1 mps 623 mmHg 50%
    23:00 +16°C° 0 mm 1 mps 623 mmHg 51%

    30 May, Wednesday

    Time Temperature Precipitation Wind Pressure Humidity
    00:00 +15°C° 0 mm 1 mps 623 mmHg 51%
    01:00 +15°C° 0 mm 1 mps 622 mmHg 52%
    02:00 +14°C° 0 mm 1 mps 622 mmHg 54%
    03:00 +14°C° 0 mm 1 mps 622 mmHg 56%
    04:00 +13°C° 0 mm 1 mps 622 mmHg 58%
    05:00 +14°C° 0 mm 1 mps 622 mmHg 59%
    06:00 +14°C° 0 mm 1 mps 623 mmHg 61%
    07:00 +14°C° 0 mm 1 mps 623 mmHg 63%
    08:00 +18°C° 0 mm 1 mps 624 mmHg 56%
    09:00 +20°C° 0 mm 2 mps 625 mmHg 48%
    10:00 +24°C° 0 mm 2 mps 626 mmHg 41%
    11:00 +25°C° 0 mm 2 mps 626 mmHg 37%
    12:00 +27°C° 0 mm 2 mps 626 mmHg 33%
    13:00 +28°C° 0 mm 1 mps 625 mmHg 30%
    14:00 +27°C° 0 mm 1 mps 625 mmHg 31%
    15:00 +27°C° 0 mm 1 mps 624 mmHg 32%
    16:00 +26°C° 0 mm 1 mps 624 mmHg 32%
    17:00 +24°C° 0 mm 1 mps 623 mmHg 38%
    18:00 +21°C° 0 mm 1 mps 623 mmHg 43%
    19:00 +19°C° 0 mm 1 mps 623 mmHg 49%
    20:00 +19°C° 0 mm 1 mps 623 mmHg 49%
    21:00 +18°C° 0 mm 1 mps 623 mmHg 50%
    22:00 +18°C° 0 mm 1 mps 623 mmHg 51%
    23:00 +16°C° 0 mm 1 mps 623 mmHg 52%
    Show more